Weather reports worldwide

Advertisment
Loch Glascarnoch, United Kingdom (3031): temperature & dewpoint: 15.05.2019 04:00:00 - 21.05.2019 04:00:00 (BST)Loch Glascarnoch, United Kingdom (3031): temperature -20cm & temperature -100cm: 15.05.2019 04:00:00 - 21.05.2019 04:00:00 (BST)Loch Glascarnoch, United Kingdom (3031): wind speed & gusts: 15.05.2019 04:00:00 - 21.05.2019 04:00:00 (BST)Loch Glascarnoch, United Kingdom (3031): wind direction: 15.05.2019 04:00:00 - 21.05.2019 04:00:00 (BST)Loch Glascarnoch, United Kingdom (3031): reduced air pressure: 15.05.2019 04:00:00 - 21.05.2019 04:00:00 (BST)Loch Glascarnoch, United Kingdom (3031): visibility: 15.05.2019 04:00:00 - 21.05.2019 04:00:00 (BST)Loch Glascarnoch, United Kingdom (3031): sunshine duration: 15.05.2019 04:00:00 - 21.05.2019 04:00:00 (BST)Loch Glascarnoch, United Kingdom (3031): precipitation: 15.05.2019 04:00:00 - 21.05.2019 04:00:00 (BST)
Date & Time tt [°C] td [°C] tt -20cm [°C] tt -100cm [°C] ff [km/h] ff [kn] fx [km/h] fx [kn] dd ppp [hPa] vv [km] sd [min] rr [mm]
21.05.2019 04:00:00 7,3 6,0 - - 21 11 - - W 1017,5 35 0 0,0
21.05.2019 03:00:00 7,3 6,2 - - 18 10 - - W 1017,6 40 0 0,0
21.05.2019 02:00:00 7,2 6,3 - - 11 6 - - W 1017,5 50 0 0,0
21.05.2019 01:00:00 7,1 5,6 - - 9 5 - - W 1017,5 45 - 0,0
21.05.2019 00:00:00 7,7 6,3 - - 9 5 - - W 1017,5 50 0 0,0
20.05.2019 23:00:00 7,8 6,1 - - 16 9 - - WNW 1017,0 50 0 0,0
20.05.2019 22:00:00 8,2 6,8 - - 13 7 - - W 1016,7 40 0 0,0
20.05.2019 21:00:00 9,1 6,5 - - 21 11 - - WNW 1016,3 50 0 0,0
20.05.2019 20:00:00 9,9 7,4 - - 18 10 - - WNW 1016,0 40 0 0,0
20.05.2019 19:00:00 10,3 7,4 - - 22 12 - - W 1015,5 45 0 0,0
20.05.2019 18:00:00 11,0 7,0 - - 18 10 - - NW 1014,9 45 0 0,0
20.05.2019 17:00:00 11,4 7,5 - - 16 9 - - W 1014,5 50 0 0,0
20.05.2019 16:00:00 11,3 7,4 - - 21 11 - - W 1014,4 50 0 0,0
20.05.2019 15:00:00 11,6 8,3 - - 24 13 - - W 1013,9 45 0 0,0
20.05.2019 14:00:00 11,9 8,1 - - 22 12 - - W 1013,6 50 0 0,0
20.05.2019 13:00:00 11,8 8,6 - - 21 11 - - W 1013,4 50 0 0,0
20.05.2019 12:00:00 11,0 8,0 - - 18 10 - - W 1013,4 50 0 0,0
20.05.2019 11:00:00 10,7 8,8 - - 15 8 - - W 1013,3 45 0 0,0
20.05.2019 10:00:00 10,2 8,9 10,5 9,2 18 10 - - W 1013,1 35 0 0,0
20.05.2019 09:00:00 9,8 9,0 - - 11 6 - - W 1013,0 29 0 0,0
20.05.2019 08:00:00 9,5 8,8 - - 11 6 - - W 1012,6 35 0 0,2
20.05.2019 07:00:00 8,9 8,5 - - 11 6 - - WNW 1012,3 16 0 0,0
20.05.2019 06:00:00 8,6 8,2 - - 9 5 - - W 1012,0 15 0 0,0
20.05.2019 05:00:00 8,5 8,2 - - 11 6 - - W 1011,8 3,5 0 0,0
20.05.2019 04:00:00 8,5 8,1 - - 11 6 - - WNW 1011,8 17 0 0,0
20.05.2019 03:00:00 8,6 8,2 - - 9 5 - - WNW 1011,7 40 0 0,2
20.05.2019 02:00:00 8,7 8,3 - - 8 4 - - WNW 1011,7 30 0 0,4
20.05.2019 01:00:00 8,7 8,4 - - 9 5 - - WNW 1011,8 18 - 0,2
20.05.2019 00:00:00 8,9 8,5 - - 9 5 - - WNW 1011,7 14 0 0,0
19.05.2019 23:00:00 9,0 8,7 - - 9 5 - - WNW 1011,6 10 0 0,2
19.05.2019 22:00:00 9,0 8,6 - - 9 5 - - WNW 1011,4 3,5 0 0,4
19.05.2019 21:00:00 9,3 8,9 - - 9 5 - - WNW 1011,0 3,2 0 0,2
19.05.2019 20:00:00 9,4 8,9 - - 15 8 - - WNW 1010,7 3,5 0 0,4
19.05.2019 19:00:00 10,2 9,3 - - 15 8 - - W 1010,1 14 0 0,0
19.05.2019 18:00:00 10,6 9,8 - - 18 10 - - WNW 1009,9 9 0 0,4
19.05.2019 17:00:00 11,1 10,0 - - 16 9 - - WNW 1009,7 9 0 0,8
19.05.2019 16:00:00 12,6 9,7 - - 16 9 - - WNW 1009,3 40 0 0,0
19.05.2019 15:00:00 11,7 8,8 - - 16 9 - - WNW 1009,2 15 0 0,2
19.05.2019 14:00:00 12,5 9,2 - - 13 7 - - WNW 1009,0 50 0 0,0
19.05.2019 13:00:00 11,9 8,5 - - 13 7 - - WNW 1008,8 45 0 0,0
19.05.2019 12:00:00 12,3 7,4 - - 2 1 - - NNW 1008,5 50 0 0,0
19.05.2019 11:00:00 12,2 7,3 - - 2 1 - - SE 1008,4 45 0 0,0
19.05.2019 10:00:00 11,0 8,3 10,4 9,2 5 3 - - E 1008,5 35 0 0,0
19.05.2019 09:00:00 10,1 8,0 - - 2 1 - - SE 1008,5 40 0 0,0
19.05.2019 08:00:00 9,8 7,6 - - 4 2 - - SSE 1008,2 35 0 0,0
19.05.2019 07:00:00 9,4 8,0 - - 5 3 - - E 1008,0 35 0 0,0
19.05.2019 06:00:00 9,1 7,5 - - 8 4 - - SSE 1007,9 45 0 0,0
19.05.2019 05:00:00 9,0 7,5 - - 8 4 - - SSE 1007,9 45 0 0,0
19.05.2019 04:00:00 8,9 7,5 - - 4 2 - - NE 1007,9 50 0 0,0
19.05.2019 03:00:00 9,1 7,5 - - 9 5 - - ESE 1008,1 50 0 0,0
19.05.2019 02:00:00 8,5 7,7 - - 2 1 - - WSW 1008,2 50 0 0,0
19.05.2019 01:00:00 8,6 7,6 - - 2 1 - - W 1008,5 50 - 0,0
19.05.2019 00:00:00 8,7 7,4 - - 4 2 - - NW 1008,5 50 0 0,0
18.05.2019 23:00:00 8,8 7,6 - - 8 4 - - ESE 1008,7 50 0 0,0
18.05.2019 22:00:00 8,7 7,5 - - 5 3 - - E 1008,9 50 0 0,4
18.05.2019 21:00:00 8,8 7,4 - - 9 5 - - E 1008,9 16 0 0,4
18.05.2019 20:00:00 9,0 7,4 - - 11 6 - - E 1008,9 27 0 0,0
18.05.2019 19:00:00 9,4 7,6 - - 9 5 - - E 1008,9 29 0 0,0
18.05.2019 18:00:00 9,5 7,5 - - 18 10 - - E 1009,0 30 0 0,2
18.05.2019 17:00:00 10,1 7,8 - - 13 7 - - E 1009,1 29 0 0,2
18.05.2019 16:00:00 10,2 8,1 - - 13 7 - - SE 1009,3 30 0 0,4
18.05.2019 15:00:00 9,4 7,8 - - 9 5 - - SE 1009,8 8 0 1,6
18.05.2019 14:00:00 9,7 7,6 - - 13 7 - - ESE 1010,2 16 0 0,6
18.05.2019 13:00:00 10,4 6,4 - - 11 6 - - ESE 1010,4 40 0 0,2
18.05.2019 12:00:00 10,9 6,2 - - 13 7 - - E 1010,6 26 0 0,0
18.05.2019 11:00:00 10,9 5,5 - - 21 11 - - E 1011,0 30 0 0,0
18.05.2019 10:00:00 12,3 4,5 10,7 9,2 5 3 - - E 1011,0 40 0 0,0
18.05.2019 09:00:00 10,9 4,4 - - 5 3 - - WNW 1011,7 50 0 0,0
18.05.2019 08:00:00 9,2 6,5 - - 9 5 - - NW 1012,2 45 0 0,0
18.05.2019 07:00:00 9,1 7,4 - - 8 4 - - WSW 1012,5 50 0 0,0
18.05.2019 06:00:00 8,0 6,2 - - 2 1 - - SSW 1013,2 45 0 0,0
18.05.2019 05:00:00 7,5 5,7 - - 4 2 - - NNW 1013,6 45 0 0,0
18.05.2019 04:00:00 8,2 6,2 - - 9 5 - - SE 1014,3 45 0 0,0
18.05.2019 03:00:00 8,1 6,6 - - 9 5 - - ESE 1015,0 45 0 0,0
18.05.2019 02:00:00 8,9 6,8 - - 18 10 - - ESE 1015,2 30 0 0,6
18.05.2019 01:00:00 8,3 6,2 - - 21 11 - - ESE 1015,9 22 - 0,2
18.05.2019 00:00:00 9,3 5,3 - - 29 16 - - E 1016,0 35 0 0,0
17.05.2019 23:00:00 9,5 4,8 - - 22 12 - - E 1016,1 45 0 0,0
17.05.2019 22:00:00 9,2 2,8 - - 13 7 - - ESE 1016,4 45 6 0,0
17.05.2019 21:00:00 10,6 1,8 - - 21 11 - - ESE 1016,2 50 60 0,0
17.05.2019 20:00:00 12,2 0,4 - - 21 11 - - E 1016,1 50 60 0,0
17.05.2019 19:00:00 14,7 1,1 - - 26 14 - - E 1015,8 30 60 0,0
17.05.2019 18:00:00 14,6 2,2 - - 28 15 - - E 1016,2 45 42 0,0
17.05.2019 17:00:00 16,3 2,2 - - 26 14 - - E 1016,5 40 60 0,0
17.05.2019 16:00:00 16,7 1,7 - - 31 17 46 25 E 1016,8 40 60 0,0
17.05.2019 15:00:00 16,8 3,0 - - 35 19 46 25 E 1017,0 30 60 0,0
17.05.2019 14:00:00 16,2 3,2 - - 21 11 - - ESE 1017,7 35 36 0,0
17.05.2019 13:00:00 15,6 3,6 - - 21 11 - - E 1018,3 35 0 0,0
17.05.2019 12:00:00 14,4 1,9 - - 21 11 - - E 1019,0 40 0 0,0
17.05.2019 11:00:00 13,4 0,8 - - 16 9 - - SE 1019,3 50 0 0,0
17.05.2019 10:00:00 12,4 -0,5 10,5 9,0 13 7 - - ESE 1019,8 35 6 0,0
17.05.2019 09:00:00 10,8 2,3 - - 11 6 - - E 1020,1 35 6 0,0
17.05.2019 08:00:00 8,7 3,9 - - 9 5 - - E 1020,8 40 12 0,0
17.05.2019 07:00:00 7,8 5,7 - - 4 2 - - ENE 1020,8 40 30 0,0
17.05.2019 06:00:00 1,9 1,3 - - 2 1 - - WNW 1021,4 40 0 0,0
17.05.2019 05:00:00 0,2 -0,8 - - 2 1 - - NW 1021,7 45 0 0,0
17.05.2019 04:00:00 0,8 -0,3 - - 4 2 - - SW 1021,5 45 0 0,0
17.05.2019 03:00:00 1,6 0,2 - - 4 2 - - W 1021,2 45 0 0,0
17.05.2019 02:00:00 2,3 1,8 - - 5 3 - - N 1021,1 30 0 0,0
17.05.2019 01:00:00 2,8 2,1 - - 0 0 - - N 1020,9 7 - 0,0
17.05.2019 00:00:00 3,5 2,3 - - 2 1 - - NW 1020,9 7 0 0,0
16.05.2019 23:00:00 5,8 3,7 - - 8 4 - - WSW 1020,6 6 0 0,0
16.05.2019 22:00:00 8,4 6,9 - - 15 8 - - WNW 1020,1 10 6 0,0
16.05.2019 21:00:00 10,6 7,5 - - 21 11 - - WNW 1019,5 15 60 0,0
16.05.2019 20:00:00 13,5 6,4 - - 26 14 - - WNW 1018,9 20 60 0,0
16.05.2019 19:00:00 15,3 6,9 - - 28 15 - - W 1018,5 25 60 0,0
16.05.2019 18:00:00 16,3 7,6 - - 29 16 46 25 WNW 1018,2 30 12 0,0
16.05.2019 17:00:00 18,2 6,7 - - 11 6 - - SE 1018,1 50 30 0,0
16.05.2019 16:00:00 19,4 6,7 - - 15 8 - - SE 1017,9 40 24 0,0
16.05.2019 15:00:00 19,4 7,0 - - 13 7 - - SE 1018,5 35 36 0,0
16.05.2019 14:00:00 18,3 6,1 - - 15 8 - - ESE 1019,3 45 6 0,0
16.05.2019 13:00:00 18,1 6,5 - - 18 10 - - E 1019,6 35 36 0,0
16.05.2019 12:00:00 17,8 7,8 - - 15 8 - - E 1020,3 23 18 0,0
16.05.2019 11:00:00 15,4 7,7 - - 15 8 - - E 1020,8 30 12 0,0
16.05.2019 10:00:00 14,5 8,1 10,5 8,7 15 8 - - E 1021,2 30 0 0,0
16.05.2019 09:00:00 13,2 7,8 - - 13 7 - - ESE 1021,5 30 24 0,0
16.05.2019 08:00:00 12,4 9,1 - - 5 3 - - E 1021,9 16 36 0,0
16.05.2019 07:00:00 10,0 9,2 - - 5 3 - - E 1022,5 9 0 0,0
16.05.2019 06:00:00 8,4 7,8 - - 8 4 - - E 1022,9 5 0 0,0
16.05.2019 05:00:00 8,2 7,6 - - 9 5 - - ENE 1023,1 4,8 0 0,0
16.05.2019 04:00:00 7,2 6,4 - - 5 3 - - ENE 1023,3 11 0 0,0
16.05.2019 03:00:00 7,3 5,8 - - 0 0 - - N 1023,4 11 0 0,0
16.05.2019 02:00:00 8,9 7,3 - - 5 3 - - E 1023,5 19 0 0,0
16.05.2019 01:00:00 - - - - - - - - - - 45 - 0,0
16.05.2019 00:00:00 - - - - 5 3 - - WNW - 35 0 0,0
15.05.2019 23:00:00 12,0 7,2 - - 8 4 - - WSW 1023,9 45 0 0,0
15.05.2019 22:00:00 13,8 6,9 - - 4 2 - - SSE 1023,9 50 0 0,0
15.05.2019 21:00:00 16,4 8,3 - - 11 6 - - SE 1023,8 35 0 0,0
15.05.2019 20:00:00 17,4 7,7 - - 4 2 - - ENE 1023,6 35 0 0,0
15.05.2019 19:00:00 19,2 7,0 - - 13 7 - - ENE 1023,3 50 18 0,0
15.05.2019 18:00:00 21,9 6,0 - - 11 6 - - ESE 1022,9 40 60 0,0
15.05.2019 17:00:00 22,6 5,2 - - 15 8 - - WNW 1023,0 45 60 0,0
15.05.2019 16:00:00 22,7 4,9 - - 13 7 - - E 1023,3 35 60 0,0
15.05.2019 15:00:00 22,8 4,9 - - 9 5 - - E 1023,9 45 60 0,0
15.05.2019 14:00:00 22,1 4,3 - - 11 6 - - E 1024,4 35 60 0,0
15.05.2019 13:00:00 21,7 4,2 - - 4 2 - - SSW 1024,8 40 60 0,0
15.05.2019 12:00:00 20,3 1,6 - - 8 4 - - SE 1025,3 40 60 0,0
15.05.2019 11:00:00 19,3 1,0 - - 5 3 - - WNW 1025,9 45 60 0,0
15.05.2019 10:00:00 17,4 3,8 9,7 8,2 5 3 - - E 1026,5 50 60 0,0
15.05.2019 09:00:00 14,1 6,8 - - 5 3 - - ESE 1027,3 24 60 0,0
15.05.2019 08:00:00 10,1 6,5 - - 5 3 - - E 1027,9 40 60 0,0
15.05.2019 07:00:00 7,1 6,7 - - 4 2 - - ESE 1028,4 27 18 0,0
15.05.2019 06:00:00 3,1 2,5 - - 2 1 - - E 1028,9 20 0 0,0
15.05.2019 05:00:00 3,1 2,3 - - 4 2 - - ESE 1029,0 21 0 0,0
15.05.2019 04:00:00 3,2 2,2 - - 2 1 - - SSE 1029,4 26 0 0,0

tt = temperature
td = dewpoint
tt -20cm = temperature -20cm
tt -100cm = temperature -100cm
ff = wind speed
fx = gusts
dd = wind direction
ppp = reduced air pressure
vv = visibility
sd = sunshine duration
rr = precipitation

Next stations